Terug naar catalogus

M-5 DEB

ActiefHEO
NORAD 27489·DEBRIS·🇯🇵 Japan

Gelanceerd Feb 12, 1997 vanaf Uchinoura Space Center

Loading…

Volgende Passages (komende 24 uur)

TLE

VersSource: Space-Track

Epoch: Sep 12, 2026, 15:41 UTC

1 27489U 97005G   26255.65400696  .00015100  00000-0  10360-2 0  9996
2 27489  31.4360 105.8400 4497735 131.2661 327.2094  6.54145614121586

Volg M-5 DEB in realtime met AllMySat

Download on the App Store